Tracking 22124 objects as of 25-Jan-2021
HD Live streaming from Space Station
objects crossing your sky now

NAVSTAR 79 (USA 304)

Track NAVSTAR 79 (USA 304) now!
NAVSTAR 79 (USA 304) is classified as:


NORAD ID: 45854
Int'l Code: 2020-041A
Perigee: 20,164.3 km
Apogee: 20,213.7 km
Inclination: 55.2 °
Period: 718.0 minutes
Semi major axis: 26560 km
RCS: Unknown
Launch date: June 30, 2020
Source: United States (US)
Launch site: AIR FORCE EASTERN TEST RANGE (AFETR)
PRN: 23
aabbcc
Your satellite tracking list
Your tracking list is empty




NASA's NSSDC Master Catalog

Two Line Element Set (TLE):
1 45854U 20041A   21024.84367718 -.00000040  00000-0  00000-0 0  9991
2 45854  55.1714 106.6083 0009295 143.1057 216.9904  2.00567383  4538
Source of the keplerian elements: AFSPC